733  
SXUS52 KTAE 051115  
OSOTAE  
OSOTAE  
NORTH FLORIDA/SOUTH ALABAMA/SOUTHWEST GEORGIA WEATHER ROUNDUP  
NATIONAL WEATHER SERVICE TALLAHASSEE FLORIDA  
600 AM EST TUE MAR 05 2024  
 
NOTE: "FAIR" INDICATES FEW OR NO CLOUDS BELOW 12,000 FEET WITH NO  
SIGNIFICANT WEATHER AND/OR OBSTRUCTIONS TO VISIBILITY.  
 
!FLZ017-115-028-034-025-051200   
..NORTH FLORIDA
 
 
 
CITY SKY/WX TMP DP RH WIND PRES REMARKS  
TALL INTL ARPT LGT RAIN 65 61 87 E7 30.00R  
FSU LOVE BLDG N/A 66 59 77 S3 N/A  
APALACHICOLA CLOUDY 65 64 97 E6 29.98R  
PERRY NOT AVBL  
CROSS CITY CLOUDY 64 63 94 E6 30.02F  
JACKSONVILLE FOG 58 58 100 CALM 30.04S VSB 1/8  

 
 
!FLZ112-006-005-002-011-051200   
..FLORIDA PANHANDLE
 
 
 
CITY SKY/WX TMP DP RH WIND PRES REMARKS  
MARIANNA CLOUDY 63 63 100 E6 29.97F  
BONIFAY NOT AVBL  
PANAMA CITY NW LGT RAIN 67 65 93 E5 29.97R  
TYNDALL AFB LGT RAIN 66 64 93 SE10 29.96R  
TYND DRONE APT LGT RAIN 66 65 96 SE8 29.93S  
DE FUNIAK SPR LGT RAIN 64 64 97 E5 29.98R  
EGLIN AFB LGT RAIN 66 64 94 SE12 29.97  
DESTIN LGT RAIN 66 64 93 SE10 29.97R  
HURLBURT SHOWER 66 64 94 SE9 29.96R  
CRESTVIEW LGT RAIN 64 63 96 CALM 29.98R  
PENSACOLA RAIN 65 62 90 VRB5 29.95R  

 
 
!ALZ063-066-051200   
..SOUTH ALABAMA
 
 
 
CITY SKY/WX TMP DP RH WIND PRES REMARKS  
DOTHAN LGT RAIN 63 62 97 SE7 30.02S  
OZARK CAIRNS LGT RAIN 64 62 93 E6 29.96F  
FT RUCKER HELI LGT RAIN 64 63 94 CALM 29.98 FOG  
RUCKER HELI 3 LGT RAIN 64 63 94 S6 29.96R  
RUCKER HELI 2 LGT RAIN 64 61 88 SE5 29.95  
FLORALA APT LGT RAIN 66 62 87 E3 30.00R  
ANDALUSIA LGT RAIN 65 63 93 E5 29.93  
TROY CLOUDY 67 61 81 SE9 29.97S  
EUFALA CLOUDY 64 58 80 SE7 30.01R  
MOBILE CLOUDY 65 63 93 E6 29.91R  

 
 
!GAZ120>161-051200   
..SOUTHWEST AND SOUTH CENTRAL GEORGIA
 
 
 
CITY SKY/WX TMP DP RH WIND PRES REMARKS  
THOMASVILLE HVY RAIN 61 59 94 CALM 30.04R  
BAINBRIDGE HVY RAIN 63 61 94 E6 30.01S FOG  
MOODY AFB CLOUDY 62 58 87 SE6 30.01S  
VALDOSTA LGT RAIN 63 59 87 E5 30.03R  
MOULTRIE LGT RAIN 61 61 100 E3 30.04R FOG  
BLAKELY DRIZZLE 64 59 82 CALM 30.01S  
ALBANY CLOUDY 63 58 83 SE7 30.03R  
TIFTON LGT RAIN 60 60 98 SE3 30.05F  
FITZGERALD CLOUDY 60 57 90 CALM 30.05S  
CORDELE CLOUDY 59 57 91 CALM 30.05R  
AMERICUS CLOUDY 60 60 100 E6 30.00F  
HOMERVILLE N/A 59 57 92 CALM 30.05S  

 
 
!GMZ750-755-770-775-051200   
..COASTAL AND BUOY OBS
 
 
 
STATION/POSITION TIME TEMP WIND PRES VSBY WAVE  
AIR SEA DIR/SP/G HT/PER  
(UTC) (F) (DEG/KT/KT) (MB) (MI) (FT/S)  
KEATON BEACH NOT AVBL  
CEDAR KEY NOT AVBL  
C TOWER 1100 65 1015.2R  
APALACHICOLA BUO 1100 70 120/ 16/ 17 1014.4  
PANAMA CITY BUOY NOT AVBL  
MOBILE BUOY 1100 68 74 80/ 21/ 27 1012.4  
ORANGE BCH AL BU 1100 65 66 130/ 19/ 25 1013.3  

 
 
 
CLICK HERE TO GO TO PREVIOUS BULLETINS.

The Nexlab FL Page
The Nexlab GA Page
The Nexlab AL Page Main Text Page